TimeCST,TemperatureF,Dew PointF,Humidity,Sea Level PressureIn,VisibilityMPH,Wind Direction,Wind SpeedMPH,Gust SpeedMPH,PrecipitationIn,Events,Conditions,WindDirDegrees,DateUTC
12:53 AM,46.0,35.1,66,30.17,10.0,SSW,8.1,-,N/A,,Clear,200,2012-11-04 05:53:00
1:53 AM,42.1,34.0,73,30.16,10.0,SW,4.6,-,N/A,,Clear,220,2012-11-04 07:53:00
2:53 AM,43.0,34.0,71,30.14,10.0,SW,9.2,-,N/A,,Clear,220,2012-11-04 08:53:00
3:53 AM,39.0,33.1,79,30.14,10.0,SW,3.5,-,N/A,,Clear,220,2012-11-04 09:53:00
4:53 AM,35.1,30.0,82,30.14,10.0,WSW,5.8,-,N/A,,Clear,250,2012-11-04 10:53:00
5:53 AM,37.0,30.9,79,30.15,10.0,West,5.8,-,N/A,,Clear,260,2012-11-04 11:53:00
6:53 AM,39.0,32.0,76,30.14,10.0,WSW,8.1,-,N/A,,Clear,250,2012-11-04 12:53:00
7:53 AM,42.1,32.0,67,30.14,10.0,WSW,10.4,-,N/A,,Clear,240,2012-11-04 13:53:00
8:53 AM,46.0,34.0,63,30.13,10.0,WSW,9.2,-,N/A,,Clear,250,2012-11-04 14:53:00
9:53 AM,52.0,34.0,50,30.11,10.0,WSW,10.4,-,N/A,,Clear,250,2012-11-04 15:53:00
10:53 AM,57.0,34.0,42,30.09,10.0,West,5.8,-,N/A,,Clear,260,2012-11-04 16:53:00
11:53 AM,63.0,34.0,34,30.06,10.0,Variable,3.5,-,N/A,,Clear,0,2012-11-04 17:53:00
12:53 PM,66.0,33.1,29,30.03,10.0,West,5.8,-,N/A,,Clear,270,2012-11-04 18:53:00
1:53 PM,71.1,28.0,20,30.01,10.0,West,6.9,-,N/A,,Clear,280,2012-11-04 19:53:00
2:53 PM,69.1,27.0,21,30.00,10.0,NW,8.1,-,N/A,,Clear,310,2012-11-04 20:53:00
3:53 PM,68.0,28.0,22,30.00,10.0,NW,5.8,-,N/A,,Clear,310,2012-11-04 21:53:00
4:53 PM,64.9,28.0,25,30.03,10.0,NNW,6.9,-,N/A,,Clear,330,2012-11-04 22:53:00
5:53 PM,61.0,28.9,30,30.06,10.0,North,9.2,-,N/A,,Clear,360,2012-11-04 23:53:00
6:53 PM,59.0,30.0,33,30.09,10.0,NNE,6.9,-,N/A,,Overcast,20,2012-11-05 00:53:00
7:53 PM,55.9,30.9,39,30.12,10.0,North,10.4,-,N/A,,Mostly Cloudy,360,2012-11-05 01:53:00
8:53 PM,54.0,32.0,43,30.13,10.0,North,6.9,-,N/A,,Overcast,350,2012-11-05 02:53:00
9:53 PM,52.0,32.0,47,30.14,10.0,North,9.2,-,N/A,,Partly Cloudy,350,2012-11-05 03:53:00
10:53 PM,51.1,33.1,50,30.13,10.0,WNW,4.6,-,N/A,,Mostly Cloudy,300,2012-11-05 04:53:00